This demonstration page uses our WeatherBlox Daily Observations layout. Learn more.

39.29038, -76.61219

Hourly Observations for February 8, 2020

Temp ( °F °C ) Dew Point ( °F °C ) Humidity (%) Winds ( mph kmh ) Pressure ( in mb ) Visibility ( mi km ) Precip ( " mm )
12:54 am 00:54 undefined 35 1.7 21 -6.1 57 57 undefined N/A 29.95 1014 N/A 0 0
1:54 am 01:54 undefined 35 1.7 22 -5.6 59 59 undefined N/A 29.99 1016 N/A 0 0
2:54 am 02:54 undefined 34 1.1 23 -5 64 64 undefined N/A 30.02 1017 N/A 0 0
3:54 am 03:54 undefined 34 1.1 23 -5 64 64 undefined N/A 30.06 1018 N/A 0 0
4:54 am 04:54 undefined 33 0.6 23 -5 66 66 undefined N/A 30.11 1020 N/A 0 0
5:54 am 05:54 undefined 32 0 23 -5 69 69 undefined N/A 30.13 1020 N/A 0 0
6:54 am 06:54 undefined 32 0 22 -5.6 66 66 undefined N/A 30.17 1022 N/A 0 0
7:54 am 07:54 undefined 33 0.6 21 -6.1 61 61 undefined N/A 30.21 1023 N/A 0 0
8:54 am 08:54 undefined 37 2.8 20 -6.7 50 50 undefined N/A 30.26 1025 N/A 0 0
9:54 am 09:54 undefined 40 4.4 19 -7.2 43 43 undefined N/A 30.27 1025 N/A 0 0
10:54 am 10:54 undefined 42 5.6 20 -6.7 41 41 undefined N/A 30.27 1025 N/A 0 0
11:54 am 11:54 undefined 42 5.6 19 -7.2 40 40 undefined N/A 30.26 1025 N/A 0 0
12:54 pm 12:54 undefined 43 6.1 19 -7.2 38 38 undefined N/A 30.24 1024 N/A 0 0
1:54 pm 13:54 undefined 42 5.6 19 -7.2 40 40 undefined N/A 30.22 1023 N/A 0 0
2:54 pm 14:54 undefined 43 6.1 19 -7.2 38 38 undefined N/A 30.22 1024 N/A 0 0
3:54 pm 15:54 undefined 43 6.1 19 -7.2 38 38 undefined N/A 30.22 1024 N/A 0 0
4:54 pm 16:54 undefined 43 6.1 18 -7.8 37 37 undefined N/A 30.22 1024 N/A 0 0
5:54 pm 17:54 undefined 42 5.6 18 -7.8 38 38 undefined N/A 30.24 1024 N/A 0 0
6:54 pm 18:54 undefined 40 4.4 20 -6.7 45 45 undefined N/A 30.28 1025 N/A 0 0
7:54 pm 19:54 undefined 40 4.4 21 -6.1 47 47 undefined N/A 30.28 1026 N/A 0 0
8:54 pm 20:54 undefined 39 3.9 25 -3.9 57 57 undefined N/A 30.29 1026 N/A 0 0
9:54 pm 21:54 undefined 38 3.3 28 -2.2 68 68 undefined N/A 30.31 1026 N/A 0 0
10:54 pm 22:54 undefined 37 2.8 27 -2.8 67 67 undefined N/A 30.32 1027 N/A 0 0
11:54 pm 23:54 undefined 36 2.2 26 -3.3 67 67 undefined N/A 30.33 1027 N/A 0 0

Powered by AerisWeather